Location: Capannuccia
(43.7000°N, 11.3000°E)
Time: 21:16:50
(UTC+00:00)

STARLINK-1312 - Visible Passes

Search period start: 29 September 2020 00:00
Search period end: 09 October 2020 00:00
Orbit: 548 x 551 km, 53.0° (Epoch: 29 September)

Date Brightness Start Highest point End Pass type
(mag) Time Alt. Az. Time Alt. Az. Time Alt. Az.
29 Sep 6.6 04:25:51 10° SSE 04:27:29 12° SE 04:29:06 10° ESE visible
30 Sep 6.3 04:19:09 10° SSE 04:21:48 17° SE 04:24:26 10° E visible
01 Oct 5.9 04:12:53 10° S 04:16:06 22° SE 04:19:20 10° E visible
02 Oct 5.4 04:06:47 10° SSW 04:10:23 29° SE 04:14:00 10° ENE visible
03 Oct 4.8 04:00:48 10° SSW 04:04:39 39° SE 04:08:32 10° ENE visible
04 Oct 4.2 03:55:46 16° SSW 03:58:55 53° SE 04:02:58 10° ENE visible
05 Oct 6.6 02:15:10 10° ESE 02:15:10 10° ESE 02:15:28 10° ESE visible
05 Oct 3.8 03:50:50 25° SW 03:53:09 70° SE 03:57:17 10° ENE visible
06 Oct 6.6 02:10:05 12° E 02:10:05 12° E 02:10:47 10° E visible
06 Oct 3.5 03:45:45 36° SW 03:47:23 89° NNW 03:51:32 10° NE visible
07 Oct 6.6 02:04:52 13° E 02:04:52 13° E 02:05:29 10° E visible
07 Oct 3.6 03:40:31 47° W 03:41:35 71° NNW 03:45:43 10° NE visible
08 Oct 6.8 01:59:32 12° ENE 01:59:32 12° ENE 01:59:57 10° ENE visible
08 Oct 3.8 03:35:11 50° WNW 03:35:46 56° NNW 03:39:51 10° NE visible
